QPF
0.00 0.00 0.00 0.00 0.00 0.00 0.00 0.00 0.00 0.00 0.00 0.00 0.00 0.00 0.00 0.00 0.00 0.00 0.00 0.05 0.04 0.00 0.04 0.09 0.14 0.99 0.75 0.20 0.00 0.00 0.00 0.00 0.00 0.00 0.01 0.01 0.01 0.00 0.00 0.00 0.00 0.00 0.00
0.00 0.00 0.00 0.00 0.00 0.00 0.00 0.00 0.01 0.00 0.00 0.01 0.01 0.02 0.00 0.00 0.00 0.00 0.00 0.00 0.00 0.00 0.02 0.07 0.65 0.75 0.23 0.06 0.00 0.01 0.02 0.05 0.03 0.14 0.49 0.28 0.41 0.14 0.03 0.09 0.03 0.02 0.00
0.00 0.00 0.00 0.00 0.00 0.00 0.00 0.00 0.00 0.01 0.00 0.02 0.04 0.03 0.01 0.00 0.00 0.00 0.00 0.00 0.00 0.00 0.04 0.00 0.11 0.18 0.77 0.48 0.01 0.01 0.06 0.56 0.14 0.12 0.08 0.50 0.21 0.30 0.63 0.22 0.34 0.14 0.00
0.00 0.00 0.00 0.00 0.00 0.00 0.00 0.00 0.00 0.00 0.00 0.00 0.02 0.02 0.00 0.00 0.00 0.00 0.00 0.00 0.00 0.00 0.00 0.00 0.00 0.02 0.13 0.13 0.01 0.00 0.02 0.07 0.51 0.78 0.21 0.06 0.04 0.04 0.09 0.19 0.14 0.07 0.00
0.00 0.00 0.00 0.00 0.00 0.00 0.00 0.00 0.00 0.03 0.03 0.02 0.04 0.02 0.01 0.22 0.06 0.01 0.00 0.00 0.00 0.00 0.00 0.00 0.00 0.00 0.01 0.03 0.01 0.02 0.01 0.02 0.07 0.07 0.13 0.10 0.01 0.03 0.00 0.00 0.02 0.03 0.00
0.00 0.00 0.00 0.00 0.00 0.00 0.00 0.00 0.00 0.01 0.04 0.02 0.02 0.03 0.05 0.24 0.06 0.04 0.01 0.00 0.00 0.00 0.00 0.00 0.00 0.00 0.01 0.02 0.02 0.02 0.01 0.00 0.01 0.01 0.00 0.00 0.00 0.00 0.00 0.00 0.00 0.00 0.00
0.00 0.00 0.00 0.00 0.00 0.00 0.00 0.00 0.00 0.00 0.00 0.00 0.00 0.02 0.03 0.05 0.02 0.01 0.00 0.00 0.00 0.00 0.00 0.01 0.01 0.00 0.01 0.00 0.01 0.02 0.01 0.01 0.01 0.01 0.00 0.00 0.00 0.00 0.00 0.00 0.00 0.00 0.00
0.00 0.00 0.00 0.00 0.00 0.00 0.00 0.00 0.00 0.00 0.00 0.00 0.00 0.01 0.01 0.01 0.00 0.00 0.00 0.00 0.01 0.01 0.08 0.06 0.00 0.00 0.00 0.00 0.01 0.00 0.00 0.01 0.09 0.04 0.01 0.00 0.00 0.00 0.00 0.00 0.00 0.00 0.00
0.00 0.00 0.00 0.00 0.00 0.00 0.00 0.00 0.00 0.00 0.00 0.00 0.00 0.01 0.02 0.00 0.00 0.01 0.01 0.01 0.01 0.06 0.23 0.10 0.02 0.00 0.01 0.01 0.00 0.00 0.00 0.01 0.03 0.01 0.01 0.00 0.00 0.00 0.00 0.00 0.00 0.00 0.00
0.01 0.00 0.00 0.00 0.00 0.00 0.00 0.00 0.00 0.00 0.00 0.00 0.00 0.00 0.00 0.00 0.01 0.05 0.10 0.04 0.08 0.27 0.25 0.10 0.02 0.01 0.01 0.02 0.03 0.01 0.01 0.04 0.01 0.00 0.01 0.00 0.00 0.00 0.00 0.00 0.00 0.00 0.00
0.02 0.00 0.00 0.00 0.00 0.00 0.00 0.00 0.00 0.00 0.00 0.00 0.00 0.00 0.00 0.00 0.01 0.03 0.05 0.02 0.05 0.09 0.03 0.04 0.02 0.01 0.02 0.03 0.06 0.05 0.06 0.08 0.06 0.02 0.02 0.01 0.01 0.00 0.00 0.00 0.00 0.00 0.00
0.14 0.03 0.00 0.00 0.00 0.00 0.00 0.00 0.00 0.00 0.00 0.00 0.00 0.00 0.00 0.00 0.00 0.00 0.01 0.02 0.03 0.05 0.02 0.06 0.06 0.04 0.03 0.04 0.04 0.02 0.08 0.13 0.07 0.04 0.01 0.01 0.00 0.02 0.00 0.01 0.00 0.01 0.00
0.42 0.33 0.05 0.00 0.00 0.00 0.00 0.01 0.02 0.00 0.00 0.00 0.00 0.00 0.00 0.00 0.00 0.00 0.00 0.01 0.04 0.04 0.01 0.06 0.14 0.11 0.06 0.03 0.01 0.02 0.02 0.03 0.05 0.08 0.06 0.02 0.05 0.06 0.02 0.02 0.01 0.03 0.02
0.26 0.59 0.39 0.11 0.00 0.00 0.00 0.00 0.08 0.05 0.00 0.00 0.00 0.00 0.00 0.00 0.00 0.00 0.00 0.00 0.00 0.02 0.01 0.01 0.04 0.03 0.03 0.02 0.00 0.01 0.01 0.02 0.04 0.11 0.07 0.03 0.10 0.11 0.05 0.01 0.05 0.03 0.03
0.07 0.30 0.84 0.50 0.03 0.00 0.00 0.00 0.00 0.09 0.01 0.00 0.00 0.00 0.00 0.00 0.00 0.00 0.00 0.00 0.01 0.00 0.01 0.01 0.01 0.03 0.01 0.01 0.01 0.02 0.01 0.02 0.05 0.08 0.07 0.04 0.08 0.09 0.09 0.05 0.07 0.04 0.05
0.06 0.12 0.33 0.63 0.20 0.02 0.04 0.02 0.01 0.00 0.00 0.00 0.00 0.00 0.04 0.05 0.03 0.04 0.07 0.04 0.02 0.00 0.01 0.02 0.01 0.00 0.00 0.10 0.05 0.01 0.01 0.01 0.01 0.01 0.03 0.07 0.12 0.15 0.12 0.02 0.00 0.01 0.01
0.02 0.06 0.14 0.13 0.05 0.07 0.11 0.17 0.17 0.03 0.00 0.01 0.01 0.00 0.03 0.07 0.05 0.06 0.03 0.02 0.01 0.02 0.01 0.01 0.01 0.02 0.06 0.09 0.04 0.01 0.00 0.01 0.02 0.03 0.01 0.01 0.02 0.08 0.09 0.13 0.06 0.00 0.00
0.00 0.01 0.04 0.02 0.02 0.07 0.07 0.13 0.17 0.18 0.12 0.06 0.02 0.03 0.04 0.05 0.05 0.05 0.05 0.06 0.05 0.04 0.05 0.06 0.10 0.14 0.12 0.03 0.01 0.01 0.00 0.02 0.05 0.05 0.04 0.09 0.08 0.09 0.21 0.14 0.11 0.06 0.05
0.00 0.00 0.01 0.00 0.00 0.00 0.01 0.03 0.12 0.13 0.11 0.10 0.06 0.10 0.17 0.26 0.19 0.18 0.14 0.09 0.11 0.12 0.13 0.13 0.11 0.09 0.07 0.02 0.02 0.03 0.00 0.01 0.05 0.04 0.05 0.03 0.03 0.06 0.12 0.11 0.11 0.19 0.11
0.00 0.00 0.01 0.02 0.01 0.02 0.01 0.01 0.06 0.07 0.07 0.05 0.04 0.09 0.07 0.09 0.10 0.07 0.04 0.02 0.01 0.01 0.03 0.05 0.04 0.05 0.03 0.01 0.03 0.03 0.01 0.01 0.02 0.01 0.01 0.00 0.00 0.00 0.00 0.02 0.09 0.19 0.12
0.00 0.00 0.00 0.00 0.00 0.00 0.00 0.01 0.08 0.12 0.04 0.08 0.02 0.02 0.04 0.03 0.02 0.05 0.01 0.00 0.00 0.00 0.00 0.01 0.01 0.01 0.01 0.01 0.06 0.14 0.11 0.13 0.09 0.04 0.03 0.03 0.04 0.02 0.01 0.01 0.02 0.04 0.04
0.00 0.00 0.00 0.00 0.00 0.00 0.01 0.02 0.05 0.09 0.03 0.01 0.04 0.05 0.01 0.00 0.00 0.00 0.00 0.00 0.00 0.00 0.00 0.00 0.01 0.03 0.06 0.08 0.11 0.09 0.05 0.05 0.04 0.06 0.07 0.11 0.24 0.17 0.10 0.06 0.03 0.02 0.01
0.00 0.00 0.00 0.00 0.00 0.00 0.00 0.02 0.05 0.05 0.04 0.01 0.00 0.00 0.00 0.00 0.00 0.00 0.00 0.00 0.00 0.00 0.00 0.00 0.00 0.00 0.00 0.01 0.02 0.00 0.00 0.00 0.00 0.02 0.03 0.06 0.09 0.05 0.03 0.04 0.05 0.03 0.02
0.00 0.00 0.00 0.00 0.00 0.00 0.00 0.00 0.01 0.01 0.01 0.01 0.00 0.00 0.00 0.00 0.00 0.00 0.00 0.00 0.00 0.00 0.00 0.00 0.00 0.00 0.00 0.00 0.00 0.00 0.00 0.00 0.00 0.00 0.00 0.00 0.00 0.00 0.00 0.01 0.01 0.00 0.01
0.00 0.00 0.00 0.00 0.00 0.00 0.00 0.00 0.00 0.00 0.00 0.00 0.00 0.00 0.00 0.00 0.00 0.00 0.00 0.00 0.00 0.00 0.00 0.00 0.00 0.00 0.00 0.00 0.00 0.00 0.01 0.01 0.01 0.02 0.01 0.01 0.00 0.00 0.00 0.00 0.01 0.03 0.07
0.00 0.00 0.00 0.00 0.00 0.00 0.00 0.00 0.00 0.00 0.00 0.00 0.00 0.00 0.00 0.00 0.00 0.00 0.00 0.00 0.00 0.00 0.00 0.00 0.00 0.00 0.00 0.00 0.00 0.00 0.00 0.00 0.01 0.01 0.00 0.01 0.03 0.03 0.04 0.04 0.05 0.03 0.03
MSLP
1009.29 1009.97 1010.48 1011.36 1012.16 1013.13 1014.07 1014.62 1015.14 1015.46 1015.76 1016.01 1016.52 1017.00 1017.06 1016.61 1015.88 1016.29 1016.10 1016.73 1016.51 1016.21 1017.94 1018.29 1017.94 1020.78 1020.57 1020.01 1016.47 1016.22 1016.65 1016.39 1016.34 1017.61 1018.12 1019.36 1019.34 1018.67 1018.94 1018.42 1017.55 1015.21 1015.30
1008.92 1009.48 1010.34 1010.86 1011.69 1012.95 1013.91 1014.78 1015.23 1015.52 1015.78 1016.07 1016.60 1016.79 1016.64 1016.32 1015.82 1015.98 1016.06 1015.97 1015.83 1016.74 1017.86 1018.64 1019.61 1021.47 1022.95 1020.26 1016.68 1016.51 1017.71 1018.64 1018.96 1019.36 1021.34 1021.98 1021.32 1019.30 1019.70 1018.35 1019.42 1017.43 1015.50
1008.44 1008.90 1009.72 1010.46 1011.24 1012.50 1013.50 1014.55 1015.16 1015.72 1015.79 1016.41 1016.72 1016.67 1016.59 1016.21 1015.93 1016.25 1016.12 1016.23 1015.94 1016.44 1017.61 1018.10 1019.49 1020.05 1019.75 1019.66 1017.39 1017.24 1017.95 1018.24 1019.07 1020.56 1020.74 1021.61 1021.83 1021.30 1019.71 1020.10 1018.68 1018.27 1017.01
1008.38 1008.38 1008.93 1009.77 1010.72 1012.00 1012.93 1014.06 1014.74 1015.44 1015.70 1016.06 1016.44 1016.87 1016.89 1016.94 1016.53 1016.26 1015.97 1016.28 1016.13 1016.15 1015.86 1016.42 1017.54 1018.20 1019.24 1018.98 1017.16 1017.53 1018.31 1018.43 1020.02 1019.57 1020.33 1019.78 1019.00 1020.06 1021.16 1020.11 1019.10 1018.22 1016.99
1007.36 1008.08 1008.13 1009.24 1010.19 1011.42 1012.42 1013.51 1014.36 1014.96 1015.24 1015.81 1016.32 1017.12 1017.03 1017.61 1017.32 1016.80 1016.17 1016.04 1016.18 1016.43 1016.34 1015.80 1016.14 1016.58 1016.54 1016.63 1017.00 1018.20 1018.16 1017.81 1017.68 1018.03 1019.61 1018.02 1017.54 1018.27 1017.91 1018.36 1018.51 1018.86 1016.77
1006.60 1007.19 1007.53 1008.41 1009.61 1010.88 1011.85 1012.97 1014.06 1014.83 1015.35 1015.65 1016.30 1016.88 1017.09 1018.06 1017.62 1017.34 1016.39 1016.09 1016.20 1016.38 1016.37 1016.34 1016.49 1016.70 1016.80 1017.33 1017.79 1017.86 1017.94 1017.61 1017.25 1017.05 1016.35 1016.93 1017.28 1017.05 1017.31 1017.46 1017.11 1017.08 1016.82
1006.10 1006.59 1006.82 1007.84 1008.88 1010.15 1011.18 1012.48 1013.64 1014.47 1015.00 1015.45 1015.84 1016.47 1017.05 1017.21 1017.08 1016.53 1015.98 1015.94 1016.40 1016.89 1016.77 1016.62 1016.91 1017.08 1017.29 1017.32 1017.38 1017.76 1017.65 1017.24 1017.23 1017.30 1017.31 1017.23 1017.28 1017.03 1016.82 1016.97 1016.97 1017.01 1016.76
1005.90 1006.13 1006.36 1007.23 1008.31 1009.41 1010.56 1011.68 1013.12 1014.01 1014.69 1015.00 1015.39 1015.82 1016.10 1016.27 1016.31 1016.13 1016.10 1016.27 1016.73 1017.31 1017.50 1017.84 1016.83 1016.84 1017.02 1016.92 1016.74 1016.89 1016.74 1016.90 1017.36 1017.87 1017.69 1017.42 1017.26 1016.95 1016.80 1016.34 1016.69 1017.02 1016.85
1005.82 1005.97 1006.14 1006.78 1007.75 1008.96 1009.93 1011.05 1012.32 1013.39 1014.16 1014.63 1014.98 1015.34 1015.60 1015.74 1015.70 1015.80 1016.07 1016.57 1016.73 1017.30 1016.46 1017.13 1017.48 1016.47 1016.59 1016.44 1016.50 1016.60 1016.78 1017.07 1017.66 1017.74 1017.32 1017.27 1016.94 1016.61 1016.57 1016.41 1016.36 1016.73 1017.14
1006.82 1005.91 1005.94 1006.41 1007.24 1008.20 1009.34 1010.45 1011.64 1012.63 1013.34 1013.91 1014.45 1014.94 1015.31 1015.49 1015.51 1015.93 1016.65 1016.72 1016.73 1016.54 1016.88 1017.38 1016.84 1016.14 1016.15 1016.17 1016.57 1016.73 1016.80 1017.16 1017.15 1016.99 1017.02 1016.89 1016.71 1016.70 1016.77 1016.84 1017.05 1016.64 1016.82
1007.28 1006.79 1005.95 1006.08 1006.75 1007.51 1008.58 1009.80 1010.83 1011.91 1012.63 1013.23 1013.84 1014.32 1014.80 1015.08 1015.40 1015.74 1016.76 1016.27 1016.50 1016.68 1016.61 1016.77 1016.88 1016.50 1016.28 1016.26 1016.62 1016.89 1016.98 1017.15 1017.38 1017.19 1016.91 1016.92 1016.97 1016.94 1016.99 1017.20 1017.25 1017.53 1017.09
1008.45 1008.64 1008.33 1007.01 1006.69 1007.49 1008.15 1009.16 1010.04 1010.94 1011.80 1012.41 1013.11 1013.83 1014.32 1014.66 1014.96 1015.27 1015.50 1015.96 1016.01 1016.37 1016.47 1016.90 1016.75 1016.77 1016.71 1016.73 1016.89 1017.15 1017.15 1017.31 1017.39 1017.32 1017.28 1017.11 1016.86 1017.07 1017.24 1017.29 1017.47 1017.46 1017.24
1009.64 1009.58 1009.40 1009.56 1007.11 1007.65 1008.39 1009.16 1009.85 1010.13 1010.78 1011.62 1012.48 1013.19 1013.79 1014.16 1014.39 1014.90 1015.16 1015.63 1016.07 1016.37 1016.24 1016.33 1016.71 1016.90 1016.86 1016.99 1016.96 1017.10 1017.20 1017.24 1017.29 1017.41 1017.47 1017.24 1017.06 1017.32 1017.37 1017.31 1017.39 1017.43 1017.38
1010.15 1011.42 1011.22 1010.92 1007.95 1007.95 1008.61 1009.95 1011.25 1010.59 1010.47 1011.01 1011.82 1012.63 1013.22 1013.67 1013.92 1014.27 1014.69 1015.09 1015.46 1015.82 1015.98 1016.13 1016.21 1016.40 1016.75 1016.92 1016.84 1016.85 1016.97 1017.04 1017.12 1017.26 1017.34 1017.21 1017.16 1017.18 1017.20 1017.25 1017.24 1017.28 1017.39
1011.35 1012.64 1011.97 1009.44 1009.43 1009.04 1008.55 1009.38 1010.35 1010.92 1010.79 1011.04 1011.36 1012.07 1012.70 1013.18 1013.53 1013.91 1014.33 1014.65 1014.95 1015.22 1015.47 1015.62 1015.67 1015.93 1016.26 1016.37 1016.49 1016.67 1016.69 1016.75 1016.90 1017.11 1017.21 1017.08 1017.01 1017.05 1017.16 1017.11 1017.15 1017.16 1017.18
1012.65 1012.72 1012.06 1012.01 1011.84 1011.63 1010.67 1010.57 1010.17 1010.60 1010.74 1011.14 1011.59 1011.80 1012.29 1012.81 1013.38 1013.73 1014.23 1014.45 1014.51 1014.74 1015.10 1015.39 1015.48 1015.61 1015.86 1016.27 1016.38 1016.35 1016.35 1016.42 1016.63 1016.90 1016.96 1016.92 1016.87 1016.83 1017.12 1017.10 1017.05 1017.18 1017.27
1013.36 1014.05 1014.02 1013.94 1013.71 1012.79 1012.07 1012.17 1011.75 1011.24 1011.45 1011.70 1011.83 1012.20 1012.81 1013.10 1013.49 1013.70 1014.29 1014.69 1014.89 1015.04 1015.09 1015.23 1015.41 1015.47 1015.87 1016.39 1016.63 1016.69 1016.54 1016.35 1016.45 1016.69 1016.81 1016.88 1016.72 1016.93 1016.89 1017.03 1017.15 1017.24 1017.39
1013.04 1013.75 1013.89 1013.93 1013.70 1013.63 1012.42 1012.48 1012.65 1012.20 1012.12 1012.31 1012.38 1012.53 1012.86 1013.38 1013.75 1014.24 1014.49 1014.83 1015.04 1015.19 1015.36 1015.43 1015.61 1015.95 1016.21 1016.56 1016.59 1016.78 1016.83 1016.87 1016.72 1016.88 1017.14 1017.44 1017.21 1017.49 1017.59 1017.33 1017.02 1017.18 1017.69
1012.92 1013.27 1013.82 1014.24 1014.21 1013.88 1013.12 1012.36 1012.76 1012.77 1012.76 1012.84 1012.72 1012.93 1013.24 1013.78 1014.12 1014.36 1014.95 1015.17 1015.42 1015.51 1015.52 1015.75 1015.81 1016.26 1016.53 1017.17 1017.37 1017.27 1017.13 1017.04 1017.00 1017.40 1017.87 1018.00 1018.17 1018.20 1017.82 1017.71 1017.42 1017.47 1018.02
1012.47 1012.98 1013.37 1013.66 1013.96 1013.90 1013.47 1012.72 1012.95 1013.05 1012.73 1012.97 1012.64 1013.12 1013.64 1014.38 1014.99 1014.81 1015.01 1015.42 1015.62 1016.01 1016.26 1017.04 1017.29 1017.34 1017.65 1017.83 1017.85 1017.77 1017.69 1017.59 1017.67 1018.08 1018.42 1018.76 1019.00 1018.84 1018.48 1018.33 1017.97 1018.00 1018.48
1012.67 1013.11 1013.41 1013.73 1013.83 1013.60 1012.83 1012.96 1013.31 1013.56 1013.38 1013.08 1013.42 1013.93 1014.27 1015.04 1015.05 1015.32 1015.47 1016.18 1016.61 1016.99 1017.51 1017.99 1018.14 1018.31 1018.50 1018.35 1018.07 1018.17 1018.21 1018.20 1017.75 1018.45 1019.09 1019.41 1019.40 1019.28 1019.08 1018.92 1019.06 1019.13 1018.95
1012.77 1013.04 1013.32 1013.56 1013.73 1013.71 1013.51 1013.88 1014.12 1014.31 1014.22 1014.13 1014.68 1015.00 1015.33 1015.21 1015.43 1015.90 1016.45 1016.80 1017.11 1017.68 1018.16 1018.42 1018.58 1019.08 1019.19 1019.23 1019.00 1018.66 1018.74 1018.68 1018.61 1018.93 1019.58 1019.74 1019.74 1019.79 1019.71 1019.60 1019.55 1019.45 1019.34
1012.93 1012.95 1013.20 1013.84 1014.24 1014.12 1014.41 1014.80 1015.19 1015.15 1015.23 1015.52 1015.52 1016.00 1016.07 1016.17 1016.24 1016.61 1016.82 1017.06 1017.44 1017.91 1018.20 1018.44 1018.87 1019.49 1019.77 1019.85 1019.67 1019.46 1019.12 1019.08 1019.40 1019.67 1020.01 1020.17 1019.97 1020.12 1019.91 1019.91 1019.94 1019.90 1019.81
1013.25 1013.31 1013.74 1014.11 1014.43 1014.76 1014.99 1015.46 1015.65 1015.95 1016.05 1016.20 1016.66 1017.01 1017.01 1017.01 1016.83 1016.85 1017.12 1017.37 1017.85 1017.79 1017.91 1018.20 1019.09 1019.73 1019.50 1019.72 1019.88 1020.11 1020.04 1019.79 1019.70 1019.99 1020.17 1020.31 1020.22 1020.26 1020.27 1020.33 1020.53 1020.40 1020.14
1013.49 1013.89 1014.20 1014.39 1014.34 1014.69 1015.30 1015.56 1015.90 1016.23 1016.47 1016.92 1017.14 1017.28 1017.40 1017.52 1017.78 1018.45 1018.89 1018.85 1019.46 1019.12 1018.74 1018.72 1019.08 1019.83 1020.46 1020.89 1020.84 1020.60 1020.66 1020.47 1020.37 1020.58 1020.65 1020.61 1020.52 1020.53 1020.40 1020.61 1020.84 1021.04 1020.73
1013.83 1014.14 1014.41 1014.57 1014.64 1014.84 1015.33 1015.48 1016.13 1016.21 1016.31 1016.65 1016.94 1017.23 1017.40 1017.51 1017.76 1018.40 1019.38 1019.71 1019.82 1019.66 1019.44 1019.56 1019.73 1020.53 1020.98 1021.21 1021.07 1020.92 1020.94 1020.99 1020.78 1020.67 1020.85 1021.02 1021.07 1021.03 1021.21 1021.26 1021.16 1021.26 1021.40
Thickness
5801 5801 5801 5796 5793 5788 5782 5780 5776 5777 5776 5774 5768 5764 5762 5765 5778 5775 5778 5761 5780 5778 5769 5770 5776 5754 5754 5758 5794 5800 5797 5802 5806 5788 5781 5765 5771 5776 5776 5781 5777 5802 5800
5800 5801 5799 5800 5796 5787 5783 5780 5778 5779 5779 5778 5774 5771 5770 5776 5782 5782 5782 5783 5784 5776 5765 5763 5746 5742 5732 5753 5792 5794 5790 5782 5780 5769 5748 5735 5748 5774 5765 5764 5771 5780 5798
5799 5802 5801 5800 5799 5790 5786 5781 5780 5779 5781 5778 5776 5776 5778 5781 5783 5783 5786 5785 5786 5781 5777 5765 5755 5748 5742 5761 5788 5788 5786 5780 5772 5765 5757 5737 5735 5743 5761 5763 5770 5777 5788
5803 5807 5807 5805 5801 5795 5793 5787 5785 5782 5783 5782 5779 5775 5770 5767 5776 5783 5789 5787 5788 5789 5793 5786 5776 5771 5770 5771 5790 5788 5787 5781 5754 5738 5756 5769 5772 5748 5742 5762 5769 5776 5789
5811 5803 5812 5810 5807 5801 5796 5791 5788 5786 5787 5785 5781 5770 5775 5766 5770 5777 5787 5792 5791 5787 5786 5790 5785 5784 5792 5795 5792 5778 5782 5787 5781 5780 5760 5780 5789 5772 5782 5769 5772 5774 5793
5817 5815 5819 5818 5811 5807 5801 5794 5788 5785 5786 5786 5782 5773 5774 5764 5764 5772 5783 5790 5792 5791 5789 5787 5786 5785 5786 5786 5784 5786 5788 5790 5789 5789 5800 5791 5781 5786 5781 5776 5782 5783 5790
5815 5815 5818 5816 5813 5807 5804 5797 5789 5784 5786 5786 5785 5779 5773 5772 5774 5781 5789 5792 5789 5786 5789 5790 5789 5788 5786 5788 5788 5788 5789 5792 5790 5790 5788 5791 5792 5793 5793 5788 5785 5784 5792
5817 5818 5821 5820 5814 5809 5806 5801 5792 5787 5786 5787 5786 5786 5785 5784 5786 5790 5792 5790 5783 5781 5782 5779 5788 5791 5788 5791 5795 5797 5799 5797 5792 5787 5789 5791 5793 5796 5796 5797 5789 5779 5785
5817 5819 5821 5823 5818 5812 5808 5804 5796 5791 5789 5788 5789 5787 5789 5789 5791 5793 5791 5784 5780 5780 5790 5783 5782 5792 5792 5795 5797 5797 5797 5795 5790 5789 5794 5792 5796 5800 5800 5801 5799 5787 5772
5797 5818 5823 5824 5823 5819 5814 5808 5802 5795 5794 5793 5792 5789 5788 5789 5792 5789 5777 5782 5783 5790 5768 5781 5785 5795 5795 5797 5795 5794 5796 5792 5792 5795 5794 5795 5797 5798 5797 5795 5793 5795 5785
5790 5811 5824 5828 5826 5823 5818 5812 5806 5799 5796 5795 5794 5792 5790 5792 5791 5789 5774 5788 5786 5787 5789 5786 5784 5791 5794 5796 5793 5791 5790 5788 5787 5790 5793 5793 5794 5793 5792 5790 5789 5785 5788
5782 5782 5789 5813 5821 5819 5818 5814 5811 5807 5802 5800 5797 5793 5792 5793 5793 5793 5793 5789 5792 5790 5788 5782 5787 5789 5791 5792 5789 5787 5788 5785 5784 5785 5786 5788 5793 5790 5789 5789 5785 5785 5786
5768 5772 5780 5781 5810 5813 5812 5809 5809 5811 5809 5805 5799 5795 5793 5793 5794 5793 5795 5794 5789 5787 5790 5791 5788 5787 5788 5787 5788 5787 5786 5786 5786 5784 5783 5785 5787 5784 5785 5786 5784 5785 5784
5761 5752 5754 5766 5807 5806 5804 5798 5786 5799 5807 5806 5802 5795 5793 5793 5795 5796 5795 5795 5794 5791 5791 5791 5790 5789 5787 5786 5787 5786 5784 5784 5783 5783 5782 5784 5784 5783 5783 5782 5782 5782 5780
5747 5740 5740 5764 5777 5793 5800 5798 5796 5786 5792 5799 5800 5796 5795 5795 5795 5794 5793 5793 5791 5790 5789 5789 5790 5789 5786 5787 5786 5784 5784 5783 5782 5780 5778 5781 5783 5781 5781 5780 5779 5778 5776
5730 5734 5745 5746 5745 5753 5770 5783 5791 5793 5798 5793 5791 5795 5795 5793 5789 5789 5787 5787 5789 5789 5787 5785 5785 5785 5786 5783 5780 5781 5781 5781 5778 5774 5775 5777 5778 5777 5774 5774 5773 5773 5770
5720 5715 5718 5720 5727 5741 5757 5759 5769 5780 5783 5781 5783 5782 5782 5783 5781 5782 5779 5778 5777 5779 5780 5780 5781 5781 5780 5775 5774 5773 5775 5776 5774 5771 5770 5770 5773 5772 5772 5767 5764 5764 5765
5722 5716 5717 5718 5731 5736 5748 5753 5753 5760 5765 5767 5768 5770 5773 5772 5772 5770 5770 5770 5771 5771 5771 5772 5772 5770 5770 5767 5767 5764 5765 5764 5765 5764 5761 5757 5760 5757 5756 5759 5760 5759 5755
5723 5723 5721 5717 5720 5726 5735 5745 5744 5748 5752 5752 5755 5760 5762 5759 5761 5760 5758 5759 5759 5760 5762 5762 5763 5760 5760 5752 5751 5753 5755 5756 5755 5752 5743 5743 5744 5742 5745 5747 5748 5747 5743
5724 5723 5722 5722 5720 5723 5731 5738 5737 5740 5743 5742 5751 5751 5751 5748 5744 5748 5749 5748 5750 5748 5748 5742 5740 5741 5740 5738 5738 5740 5741 5740 5739 5736 5731 5726 5725 5727 5730 5731 5734 5733 5728
5715 5716 5715 5713 5714 5719 5734 5731 5729 5728 5733 5739 5739 5738 5739 5736 5739 5737 5737 5732 5731 5730 5728 5725 5726 5724 5724 5726 5728 5727 5726 5724 5726 5719 5714 5711 5712 5714 5715 5715 5713 5712 5714
5707 5708 5708 5709 5711 5714 5718 5717 5717 5718 5723 5727 5725 5723 5724 5729 5730 5727 5725 5722 5719 5715 5713 5712 5713 5711 5710 5709 5712 5714 5712 5712 5712 5707 5700 5698 5699 5699 5699 5699 5698 5698 5699
5695 5701 5704 5701 5701 5706 5706 5706 5705 5711 5712 5711 5713 5712 5714 5715 5718 5716 5716 5717 5715 5712 5710 5708 5705 5699 5698 5698 5699 5700 5702 5701 5696 5694 5689 5687 5688 5686 5687 5686 5684 5683 5682
5683 5689 5691 5692 5693 5696 5698 5696 5699 5698 5701 5701 5698 5698 5700 5703 5708 5710 5708 5709 5707 5710 5710 5706 5696 5690 5693 5692 5692 5688 5688 5688 5687 5682 5679 5676 5676 5674 5672 5669 5667 5667 5668
5676 5678 5679 5683 5689 5691 5689 5690 5690 5690 5691 5688 5688 5690 5690 5692 5692 5688 5685 5687 5683 5686 5693 5694 5690 5684 5677 5673 5672 5675 5674 5673 5672 5668 5666 5665 5664 5662 5660 5656 5652 5649 5651
5667 5668 5670 5674 5678 5681 5680 5683 5681 5683 5685 5685 5685 5684 5684 5686 5687 5683 5673 5668 5669 5672 5675 5675 5676 5669 5663 5660 5661 5661 5660 5657 5657 5658 5654 5652 5649 5647 5644 5640 5640 5636 5633